Theta_e
310 310 309 309 309 310 310 310 311 311 312 312 312 312 312 312 312 312 312 311 311 311 310 310 310 310 310 310 311 311 311 313 315 317 318 320 320 318 317 318 319 320 321 321 320 320 319 319 318 318 318 319 319 319 320 319 319 322 329 332 331 334 335 333 337 334 334 336 330 327 329 333 335 333 332 333 333 333 333 333 332 332 331 330 329 329 329 331
308 308 308 308 308 309 309 310 310 311 311 312 312 312 312 312 312 312 312 312 312 311 311 310 310 310 310 310 311 311 313 317 319 321 322 322 320 318 318 317 319 320 320 321 320 320 319 319 318 319 320 321 322 322 323 323 320 327 332 332 334 339 334 329 333 331 329 333 331 328 329 330 334 333 333 336 334 333 334 333 332 332 331 330 330 330 331 332
307 307 307 308 309 309 310 310 311 311 311 312 312 313 313 313 312 312 312 312 312 311 311 310 310 310 310 311 310 312 317 319 321 323 323 323 321 319 318 318 320 320 321 321 319 320 318 319 322 323 324 323 323 324 326 327 325 327 328 333 341 340 332 325 326 328 326 329 330 328 329 328 331 332 332 335 333 333 335 333 331 332 331 330 330 331 332 333
309 309 309 309 310 310 311 311 311 311 311 311 312 312 313 313 313 313 312 312 312 312 311 310 310 310 310 310 311 314 319 321 323 324 324 324 323 320 319 320 321 321 321 320 319 319 317 320 326 326 323 322 324 326 327 329 327 326 329 339 341 331 330 327 324 326 325 326 329 328 329 329 331 331 331 333 335 336 333 332 331 331 331 331 331 332 332 333
310 310 310 310 311 311 311 311 311 311 311 311 312 312 312 313 313 313 313 312 313 312 312 311 310 310 310 310 311 316 320 324 325 324 324 324 325 322 321 321 320 320 319 320 320 319 318 319 323 322 322 324 327 328 328 328 326 327 329 332 331 326 329 327 324 326 326 327 328 328 331 331 330 330 331 332 335 337 333 332 332 331 330 330 332 332 332 332
310 310 310 311 311 311 311 311 311 311 311 311 311 311 312 313 313 313 313 313 313 312 312 311 310 310 310 310 311 316 321 325 325 324 325 324 325 325 322 321 320 320 319 321 320 320 322 320 318 319 322 327 330 330 329 326 326 331 330 325 326 326 327 327 325 326 326 327 328 329 331 329 330 332 332 330 332 334 333 332 331 330 329 329 332 332 332 331
311 311 311 311 311 311 311 311 311 311 311 310 310 310 311 312 313 314 313 313 313 313 312 311 310 310 310 310 311 316 320 323 324 324 325 325 326 326 324 323 322 321 321 322 321 322 323 320 319 320 326 330 330 330 329 326 326 331 332 327 327 326 325 327 326 327 326 327 327 328 329 330 332 334 332 331 331 332 333 332 329 329 329 330 332 332 331 331
311 311 311 311 311 311 311 310 310 310 310 310 309 309 310 311 313 314 313 313 313 313 312 311 310 309 310 310 311 316 319 322 325 324 325 326 326 325 325 325 323 324 324 324 322 323 321 319 320 322 328 331 329 330 328 328 329 331 333 330 327 325 326 328 326 326 326 327 328 328 331 330 331 333 331 332 333 333 331 328 327 328 329 330 331 331 331 330
311 311 310 310 310 309 309 309 309 309 309 309 309 309 309 310 312 314 313 313 313 313 313 311 310 309 310 310 311 318 322 324 325 325 325 326 326 325 326 326 325 325 325 326 323 322 321 320 321 323 329 330 329 329 327 331 333 331 331 328 326 326 327 327 327 327 328 328 329 331 333 331 330 332 332 332 333 332 328 326 326 328 329 330 330 330 331 330
311 310 309 308 308 308 307 308 308 309 310 310 309 309 308 309 311 313 314 314 313 313 313 311 310 310 310 310 313 319 324 325 325 325 325 326 326 326 326 325 326 325 324 325 324 323 322 323 324 323 326 327 328 329 327 330 332 329 328 326 327 328 328 327 327 329 330 330 330 334 335 332 331 332 332 333 333 331 327 325 327 329 329 329 330 330 330 330
311 310 309 308 307 307 307 308 309 310 310 310 308 308 308 308 310 313 314 314 313 313 312 311 310 309 310 311 314 319 323 325 326 325 325 326 326 326 326 325 325 325 324 324 324 325 324 325 324 324 327 327 328 328 326 328 329 327 327 327 326 326 327 327 329 329 331 331 330 333 334 331 332 333 333 333 333 331 326 326 327 329 329 329 330 330 330 330
311 310 309 309 308 308 309 309 310 311 310 309 307 307 307 308 309 312 314 314 314 313 312 311 309 309 310 310 313 317 319 324 326 325 325 326 325 326 325 325 325 325 325 324 325 325 325 325 322 323 326 327 328 329 328 328 329 327 328 332 329 327 328 327 329 330 330 331 330 332 333 335 337 333 333 333 333 331 326 327 328 328 330 330 331 330 330 330
312 311 310 310 310 310 310 311 311 310 308 306 306 306 307 308 309 311 314 314 313 313 311 310 310 310 310 312 315 316 317 324 326 325 326 325 325 326 325 324 325 324 324 324 324 324 323 324 322 323 325 327 329 328 329 327 327 328 330 335 332 328 331 327 328 331 329 331 330 330 331 336 338 331 332 334 333 332 328 329 329 330 331 331 331 330 329 330
312 311 311 311 311 312 312 312 310 308 305 304 305 305 307 308 309 312 314 314 312 311 310 310 310 310 311 313 316 316 317 321 325 325 326 325 325 325 324 324 323 323 324 323 323 323 323 323 322 322 325 328 327 327 334 333 332 333 329 336 336 330 333 329 327 331 330 330 329 330 331 333 334 330 332 334 332 332 330 329 330 330 331 331 331 330 329 330
312 312 312 312 312 312 312 311 308 305 303 304 305 306 308 309 311 313 313 313 312 311 310 311 311 311 313 314 314 317 317 318 323 325 325 326 325 325 325 324 323 323 323 323 322 322 322 324 323 324 326 327 329 332 340 341 342 339 330 336 338 331 333 330 325 330 332 331 328 330 334 334 332 331 333 333 332 332 330 330 330 330 331 331 331 330 330 330
312 312 312 312 312 312 311 308 305 303 303 304 305 308 311 312 315 317 318 318 315 313 312 312 313 313 316 317 316 318 319 319 321 323 324 325 325 326 325 324 324 323 322 322 322 321 321 325 325 326 327 327 335 341 338 340 346 342 333 335 338 333 333 330 326 327 329 332 329 328 335 335 331 330 332 334 332 331 330 330 330 330 331 331 331 330 330 331
312 312 312 312 311 310 308 305 303 303 303 304 306 310 313 315 319 319 320 320 318 316 313 315 317 316 317 319 319 320 320 321 322 323 324 325 325 326 326 326 325 323 323 323 322 321 321 324 328 329 330 330 336 339 333 336 341 336 333 336 338 335 332 332 331 327 327 333 333 330 334 337 331 328 331 333 333 331 331 330 330 330 330 330 331 330 330 331
310 311 311 310 309 308 306 304 303 303 303 305 308 312 313 317 320 318 318 318 317 316 314 317 319 317 317 317 319 320 320 322 322 323 324 325 326 325 326 326 325 323 323 324 322 322 323 324 328 332 335 333 334 336 334 337 335 331 335 337 335 333 331 333 333 329 329 334 335 331 333 335 331 330 331 332 333 332 331 331 330 330 330 331 331 331 331 331
309 309 308 307 307 305 304 303 303 303 303 305 309 312 314 316 318 318 318 317 316 317 315 316 317 316 318 317 317 318 319 320 320 322 323 324 325 325 326 325 325 323 323 327 326 323 325 326 329 332 334 335 334 335 335 336 335 335 340 340 336 333 330 332 332 329 329 332 334 333 334 335 333 334 332 331 333 332 332 332 331 331 331 331 331 331 331 331
307 307 306 305 305 304 304 303 304 303 303 306 310 313 313 313 315 317 317 317 317 317 315 316 316 315 316 316 316 317 317 318 318 319 320 323 324 324 326 325 324 323 322 330 330 324 326 330 333 333 331 332 332 332 330 331 334 335 337 338 335 332 330 331 331 329 328 331 333 331 333 334 334 335 331 330 332 331 331 331 330 331 330 331 331 331 331 330
306 304 305 304 304 304 304 304 304 303 304 307 310 313 312 310 313 314 314 316 316 316 316 316 316 316 316 316 316 317 317 318 318 319 319 320 323 324 325 324 324 325 324 326 328 325 326 331 333 331 329 329 329 330 329 328 333 335 335 334 333 333 333 330 328 328 328 331 333 330 332 333 332 334 329 328 331 331 331 330 330 330 330 330 330 330 331 330
304 303 304 303 303 304 304 304 304 304 304 306 309 312 313 311 313 314 313 314 315 315 316 315 316 316 317 316 317 317 317 318 318 319 320 319 321 323 324 324 326 327 325 325 327 328 329 331 330 326 326 326 327 328 327 328 334 337 335 332 332 333 330 327 328 328 327 331 333 330 331 331 331 332 329 328 331 330 330 330 330 330 329 329 330 330 330 330
302 303 303 303 304 304 304 305 304 305 304 305 308 312 312 312 314 315 314 314 315 316 315 316 316 315 317 316 317 317 316 318 318 318 320 320 322 323 322 325 326 325 326 327 330 330 329 330 328 325 325 327 328 328 327 328 332 336 335 331 331 330 328 327 329 328 327 330 332 331 333 334 332 331 330 328 328 329 330 330 330 330 329 329 329 330 330 330
301 302 302 303 303 304 304 305 305 305 304 304 308 311 312 313 315 315 315 315 317 317 315 315 315 314 316 316 316 317 317 317 318 318 320 320 322 323 323 325 325 325 325 327 329 328 328 327 325 325 328 328 328 328 328 329 331 333 333 331 331 331 329 328 330 331 328 328 329 332 337 340 335 331 332 329 327 328 328 328 329 329 329 329 329 329 329 330
301 301 302 302 303 304 304 305 305 304 303 304 307 310 312 313 315 315 315 317 318 318 316 315 315 315 315 316 316 317 318 318 319 319 319 321 322 323 324 323 325 327 326 325 326 326 326 324 322 326 328 327 328 330 330 329 331 332 330 332 331 330 330 328 330 333 332 332 333 333 336 341 337 331 332 331 328 328 327 326 328 328 329 329 328 329 328 329
301 301 302 302 302 303 304 305 304 303 304 305 308 311 311 313 316 315 317 323 324 321 318 315 315 316 315 316 316 316 318 319 319 319 319 320 322 322 323 323 323 326 326 325 325 327 327 324 322 325 327 327 328 328 329 328 330 331 331 332 329 329 332 328 330 335 335 333 333 331 335 339 338 333 331 331 330 329 328 327 327 327 328 328 328 329 328 328
301 301 301 302 302 302 303 304 304 303 304 304 307 310 310 313 315 314 317 321 320 318 317 315 314 314 316 316 316 317 320 320 320 320 320 320 321 321 323 325 323 322 323 322 323 327 328 325 324 324 324 326 326 327 329 327 330 335 333 330 329 331 334 332 334 340 338 334 332 334 335 333 336 335 329 329 330 329 329 329 327 326 326 328 328 328 328 328
301 301 301 301 301 301 302 303 304 303 303 304 306 309 312 314 315 317 318 314 311 316 317 315 315 314 315 317 317 318 320 322 322 321 321 321 321 321 323 325 324 324 323 322 325 327 325 325 327 327 325 325 326 329 330 326 330 336 331 328 331 333 335 337 340 343 339 334 333 335 331 328 339 343 330 325 330 330 328 328 327 325 326 327 328 328 328 328
301 301 301 301 302 302 302 303 303 303 304 304 305 310 313 313 314 319 319 313 312 318 317 315 316 316 316 317 317 318 319 321 321 322 321 320 320 321 323 323 322 325 322 321 325 325 323 323 324 326 326 326 327 328 326 326 329 329 327 330 333 333 338 341 342 342 338 334 334 335 330 328 340 346 332 325 329 329 328 328 325 324 325 326 327 327 327 328
302 301 301 301 302 303 303 303 303 304 304 304 306 311 313 316 322 322 317 314 317 319 316 315 316 316 317 318 318 318 319 319 321 321 320 321 321 321 322 322 321 325 326 325 325 324 321 320 321 323 323 324 326 325 323 326 327 326 331 333 331 335 343 346 345 340 334 336 338 335 331 329 335 343 338 330 332 331 327 328 327 323 324 325 326 327 327 327
302 301 301 302 304 304 305 305 304 304 304 304 308 312 314 319 327 325 318 316 318 318 316 317 317 317 318 320 320 319 318 319 320 319 321 323 321 321 322 322 322 328 336 334 326 324 323 320 322 322 321 323 326 327 324 325 327 330 338 336 329 335 340 341 342 336 332 338 339 335 332 328 332 344 342 332 333 334 328 328 330 326 323 324 325 326 327 327
302 302 302 306 309 310 311 309 306 304 303 305 308 313 318 320 321 324 324 319 317 318 317 316 317 318 318 318 320 320 319 320 320 320 323 324 324 324 322 326 329 326 332 334 326 327 329 323 323 321 322 326 327 330 326 325 329 330 335 337 333 334 334 336 339 336 336 337 333 333 332 327 331 338 337 332 331 332 327 325 327 325 323 324 325 325 326 326
302 303 308 312 314 315 315 312 308 304 304 307 310 316 322 321 320 323 323 320 318 317 317 316 317 318 316 316 319 319 319 320 320 320 322 322 325 325 321 327 330 323 328 331 325 330 332 326 324 322 324 327 327 331 329 328 331 328 330 334 333 335 336 336 336 332 332 333 331 331 331 332 333 329 330 334 329 325 323 322 324 325 324 325 325 325 325 326
302 308 315 316 316 316 316 315 310 304 305 309 313 318 319 319 324 326 320 319 319 318 317 318 318 317 316 317 320 319 319 320 320 320 322 322 323 326 324 323 323 327 334 329 323 329 327 325 329 325 323 326 326 329 329 328 329 327 330 329 329 338 338 332 333 332 330 334 333 328 327 335 335 326 327 327 321 320 321 322 324 324 325 325 325 325 325 326
304 313 317 317 318 316 314 314 312 307 307 313 318 321 320 319 324 325 320 319 320 319 319 317 318 321 321 322 324 321 318 319 321 321 322 323 326 331 330 323 323 329 332 327 325 326 320 324 332 324 320 325 327 326 326 328 329 325 326 325 325 335 339 330 328 334 335 333 331 327 329 337 333 326 326 322 321 322 321 322 324 323 324 324 324 325 325 326
306 315 319 318 319 317 313 311 311 309 311 317 320 320 322 322 320 321 320 319 318 317 319 319 320 324 324 324 329 325 318 319 321 321 322 322 324 328 329 325 324 324 326 329 331 327 322 327 331 324 322 325 325 325 324 326 331 328 323 327 328 329 339 333 324 330 334 329 330 328 330 338 332 324 328 328 329 328 323 323 323 322 324 324 324 326 325 326
308 317 320 319 319 319 315 312 312 313 313 319 321 320 323 324 320 320 320 317 316 316 318 320 321 321 319 321 329 326 319 319 319 320 323 323 321 324 326 324 321 320 324 326 328 329 327 327 329 325 322 322 320 323 325 323 327 331 326 329 328 323 332 336 329 334 332 325 333 333 329 336 333 326 330 333 331 329 327 327 323 322 324 324 325 326 325 327
309 317 319 319 320 319 318 317 317 317 317 320 325 324 324 325 320 318 317 315 315 316 318 320 320 319 316 318 326 325 320 319 321 324 325 322 321 323 325 324 321 320 320 319 324 330 325 323 330 329 321 321 323 325 328 323 322 330 330 327 326 324 328 328 327 333 329 323 331 334 329 331 331 331 332 330 333 333 328 328 328 325 324 323 324 326 326 327
310 316 318 319 321 319 319 320 317 317 318 320 325 324 319 321 321 316 315 315 314 316 318 319 318 318 318 319 323 326 324 322 323 325 323 319 320 323 324 325 322 319 319 319 324 329 325 322 328 328 321 321 326 329 332 329 323 324 325 322 327 335 333 327 325 330 331 329 328 327 326 327 332 340 337 331 339 338 329 331 333 326 323 324 325 325 326 327
313 317 319 319 320 320 320 320 318 319 320 318 323 326 319 317 318 314 315 315 313 315 319 319 317 318 321 322 320 322 327 328 325 324 323 321 321 323 324 326 326 322 318 318 323 330 328 322 326 333 325 320 325 329 333 334 327 325 326 324 326 329 326 324 325 324 330 335 331 326 325 328 336 341 335 331 336 335 331 334 332 324 322 325 325 325 326 327
314 318 320 317 319 321 320 321 320 321 322 319 321 324 320 317 316 315 317 316 313 315 317 317 317 317 320 321 320 322 330 334 330 328 329 325 322 323 325 324 324 322 320 319 324 332 329 326 334 337 323 320 328 330 329 330 330 333 334 330 331 330 326 327 324 322 328 331 332 332 328 330 337 333 328 330 332 329 326 326 325 322 323 326 326 326 326 327
315 318 319 317 319 320 320 323 320 317 321 323 320 319 318 317 317 317 317 315 314 315 314 315 317 317 318 318 320 326 330 330 328 328 329 328 326 325 324 323 321 321 325 325 323 329 335 333 331 327 322 324 327 323 321 323 328 336 335 332 336 335 336 340 330 326 330 325 327 335 331 332 339 331 325 327 326 324 322 320 321 321 323 326 327 326 327 327
315 317 318 317 317 318 320 325 324 322 324 322 319 319 318 318 318 318 317 316 318 317 315 316 316 316 317 318 321 325 325 323 323 325 326 328 327 323 323 325 323 322 328 328 324 328 335 331 321 324 336 339 333 330 327 325 331 337 332 331 333 329 336 347 341 337 337 327 326 331 327 332 340 331 327 327 325 324 323 321 321 321 322 325 325 327 327 327
313 315 316 317 318 318 321 324 324 327 328 322 321 323 320 318 319 319 319 319 321 320 319 319 318 316 318 319 321 323 321 319 320 323 325 326 325 322 323 324 325 327 330 330 330 329 330 332 327 328 334 333 331 334 330 329 335 337 332 331 333 333 336 336 336 342 339 328 330 335 330 334 336 330 329 331 330 330 328 325 323 322 322 323 323 326 327 326
313 315 314 315 319 318 320 319 318 324 327 324 326 326 322 322 321 320 321 321 321 321 321 322 320 320 323 324 324 326 325 321 319 323 327 330 329 324 323 323 325 334 339 333 330 331 335 339 335 331 330 328 330 334 330 329 331 328 329 332 332 335 334 326 328 338 331 322 330 339 336 337 338 334 332 332 331 333 331 328 328 325 323 323 323 325 325 326
314 317 316 316 316 314 315 316 315 319 322 323 325 324 322 325 322 319 321 322 322 321 321 321 321 323 326 328 330 332 330 326 324 327 330 333 334 327 322 324 323 329 341 333 323 332 344 340 336 339 339 335 340 340 331 330 329 326 332 339 336 334 335 331 331 333 330 326 328 333 334 337 341 337 333 332 331 332 331 329 330 329 325 323 323 324 325 326
313 315 315 315 315 313 314 313 313 316 318 318 321 322 322 325 323 321 322 322 322 322 322 322 321 324 325 326 331 333 331 330 328 329 329 328 331 329 322 323 321 322 334 330 322 338 351 336 330 337 334 330 335 335 328 329 334 334 338 343 342 340 337 330 326 327 332 333 329 330 335 340 340 335 333 333 331 331 331 329 330 330 328 324 322 324 325 326
312 313 311 311 314 315 314 313 313 317 318 318 322 323 324 326 325 323 322 322 322 321 325 326 323 322 320 323 332 332 330 334 331 329 330 325 328 333 328 327 324 320 329 331 327 343 354 337 327 330 328 326 328 330 332 336 335 331 334 336 339 344 343 335 332 329 330 333 334 334 337 340 338 334 332 332 330 330 330 329 330 330 329 327 324 324 325 325
309 310 309 309 311 312 312 312 313 317 319 320 324 324 323 325 324 321 320 325 328 324 324 327 326 323 319 322 332 331 327 331 329 327 330 325 325 331 331 331 327 319 325 337 333 335 342 337 332 335 333 327 327 331 334 338 337 332 331 329 329 335 336 334 334 330 329 333 335 335 336 336 333 331 331 330 330 330 329 329 330 330 329 330 329 328 327 326
306 308 307 310 312 312 314 314 315 320 320 318 321 321 320 323 323 320 320 323 328 326 323 325 326 324 321 320 326 326 322 323 324 324 326 324 326 330 328 329 327 321 326 335 332 331 334 330 332 343 342 329 329 333 332 336 342 339 334 330 328 331 332 331 331 332 333 334 332 334 338 336 331 329 329 330 330 330 329 329 329 329 329 329 330 330 330 330
307 306 306 311 314 314 316 314 314 321 320 316 317 318 318 320 318 319 322 320 321 323 322 323 325 325 325 323 322 322 319 318 319 320 321 321 323 325 325 325 324 324 328 331 331 338 342 333 331 345 345 332 332 335 333 338 343 340 338 334 330 333 336 333 331 330 331 331 332 338 342 337 330 328 329 330 330 329 328 328 327 327 327 328 328 330 331 332
307 306 306 311 313 313 315 315 315 319 315 311 313 314 314 316 314 316 322 320 318 320 320 320 322 325 327 326 322 320 317 316 317 318 317 318 318 319 320 321 320 321 325 328 332 339 344 337 334 340 338 331 332 334 334 337 337 334 335 332 329 331 332 331 331 330 328 327 332 338 337 332 329 329 330 330 329 327 326 325 325 325 325 326 328 328 330 332
Wind_Speed
13 14 14 14 14 15 15 16 16 16 17 17 16 16 16 16 17 18 17 16 16 16 16 16 16 16 15 15 15 15 15 16 16 18 16 8 3 8 13 12 8 5 4 4 6 6 6 4 3 2 3 3 5 5 4 6 8 6 3 2 2 2 3 4 6 6 3 2 5 7 9 8 3 4 7 8 9 11 7 2 7 9 2 10 15 17 19 16
14 14 14 14 15 15 15 16 16 17 17 17 17 17 16 16 17 17 18 17 16 17 16 15 15 15 16 15 15 15 15 15 15 15 11 4 5 10 13 15 11 8 6 5 4 5 4 1 2 2 3 4 4 3 2 6 9 5 3 2 3 4 4 5 7 7 4 3 6 9 9 8 5 7 9 6 4 7 6 4 5 8 6 11 18 19 18 17
14 14 14 15 15 15 16 16 17 18 18 18 18 18 17 17 17 17 18 17 16 17 16 15 15 15 15 14 15 15 15 14 12 9 6 5 3 9 12 14 12 10 8 5 3 3 4 2 3 1 3 6 4 3 2 5 6 3 3 1 4 5 4 6 8 9 7 5 8 9 8 7 6 7 7 5 4 3 5 5 6 11 15 17 20 21 19 18
15 15 15 15 16 16 17 17 18 19 19 19 19 19 18 17 17 17 18 17 16 17 16 15 15 14 14 14 13 13 13 10 6 5 3 3 1 5 9 11 12 10 9 6 3 2 2 1 2 1 4 6 3 3 3 4 4 2 4 3 5 4 2 6 8 9 8 7 10 11 8 5 6 6 5 9 7 1 5 10 12 19 24 23 23 23 21 21
16 16 16 17 17 17 18 19 19 20 20 20 20 20 19 18 17 17 17 17 17 16 15 14 14 14 14 13 12 11 9 5 2 3 3 1 2 3 5 8 10 9 9 7 5 2 1 1 2 3 5 5 2 0 2 5 5 2 3 5 5 5 2 3 6 7 7 10 11 12 7 6 7 4 7 11 4 2 8 12 15 22 28 27 26 23 21 21
17 18 18 18 18 19 19 20 20 21 21 22 21 21 20 19 18 17 17 17 16 16 15 14 13 13 13 12 11 9 4 2 4 3 2 0 1 4 6 7 8 7 7 5 4 4 3 3 3 6 5 3 1 2 2 4 6 2 2 4 4 5 3 1 8 9 10 13 11 9 7 8 7 3 9 8 1 2 9 12 15 22 28 28 26 23 21 19
18 19 19 19 19 20 20 20 21 21 22 22 22 22 21 20 18 17 17 16 16 16 15 13 12 12 12 12 10 8 6 6 5 2 2 1 1 3 6 6 6 6 5 6 7 8 7 5 5 6 2 3 3 3 1 3 5 2 2 3 3 3 2 5 10 10 11 12 11 12 10 8 7 5 8 4 2 8 9 11 17 25 29 26 24 22 20 17
19 19 20 20 20 21 20 20 20 21 22 23 23 23 22 21 18 17 16 16 16 16 14 12 11 11 11 10 9 9 10 7 2 4 5 4 4 4 6 6 7 6 4 5 9 8 8 8 8 5 1 3 3 2 3 3 1 2 2 3 2 2 4 8 10 10 10 11 13 14 8 6 7 7 5 2 7 11 10 15 22 27 28 24 23 20 18 17
20 20 20 21 21 21 21 20 20 21 22 23 24 23 23 21 18 16 16 15 16 15 14 12 10 10 10 9 7 8 7 3 2 5 6 7 7 7 7 7 9 10 7 6 9 11 10 8 6 5 4 5 2 1 4 3 1 4 4 2 4 6 8 10 10 10 11 12 15 11 4 4 6 5 2 3 10 13 14 21 25 26 25 23 21 19 18 15
20 21 21 21 21 21 21 21 21 22 24 24 25 24 23 22 18 16 15 14 15 15 13 11 10 9 9 8 3 3 3 3 3 5 8 10 10 10 9 9 10 12 13 10 10 12 10 5 3 3 5 6 1 1 3 2 1 4 2 3 6 9 9 9 9 10 11 11 12 8 4 4 4 2 1 3 10 15 18 23 23 24 23 20 18 16 15 13
21 21 21 21 21 21 21 22 23 24 25 25 25 25 24 22 18 15 14 14 14 14 12 10 9 8 8 7 4 3 3 4 5 6 9 11 12 12 11 11 10 10 13 13 11 10 7 5 6 3 2 3 1 1 2 2 1 2 6 7 6 7 7 7 8 9 9 4 7 11 6 2 1 3 1 7 12 16 20 22 21 21 19 17 14 12 11 11
21 21 21 22 22 22 22 23 24 25 26 26 25 25 24 22 17 14 14 13 14 13 11 10 8 8 7 9 12 7 4 5 6 7 10 12 13 13 13 12 11 10 10 10 9 7 6 7 9 7 3 2 1 0 1 2 1 2 7 5 4 6 3 3 5 7 6 2 9 13 6 3 3 3 3 10 13 16 20 21 19 19 16 14 11 10 10 10
22 22 22 23 23 23 24 25 26 27 27 26 25 24 23 20 16 14 14 13 13 11 10 8 8 8 6 9 12 7 4 7 8 9 10 12 13 14 15 14 13 12 11 10 8 6 6 7 9 8 6 3 1 0 0 1 0 2 4 4 3 5 3 3 4 6 3 4 12 9 3 4 5 3 6 12 15 17 20 19 18 17 14 13 11 12 12 11
23 23 24 24 25 25 26 26 27 27 27 25 24 23 21 18 14 13 13 12 12 10 8 8 8 7 7 11 11 7 6 8 10 12 10 11 14 15 16 16 15 14 13 13 12 9 7 6 7 8 5 4 3 1 1 3 3 2 2 3 3 2 3 3 4 6 2 4 10 5 3 3 5 2 8 12 15 18 19 18 18 17 15 14 13 14 14 12
24 24 25 26 27 27 27 27 27 27 26 24 22 20 18 14 12 11 11 11 10 9 8 8 8 6 7 12 11 8 8 10 13 14 12 12 14 15 16 16 16 15 14 14 13 10 6 4 4 6 4 2 1 1 2 4 4 3 2 2 2 2 3 4 4 7 3 4 6 3 2 3 4 4 8 12 14 16 18 18 18 17 15 15 15 15 15 13
26 26 26 27 28 28 28 27 27 26 25 23 20 17 14 12 10 9 8 9 8 8 8 7 7 6 4 8 9 8 9 10 12 13 14 15 15 15 15 14 14 14 14 14 14 12 6 3 2 3 1 1 2 3 3 4 3 4 2 2 2 2 1 2 4 7 6 6 3 1 2 2 2 6 10 13 14 14 15 15 17 17 16 16 17 17 16 14
27 27 27 28 29 28 27 26 26 26 25 21 16 14 11 9 5 2 1 4 5 7 6 5 5 4 6 6 6 6 5 6 8 10 12 13 15 16 16 15 13 12 11 9 11 11 8 5 2 2 1 2 2 4 3 3 3 4 2 0 2 2 2 1 3 5 8 7 3 2 3 3 3 5 12 15 15 13 12 14 16 16 16 16 16 17 17 16
28 28 28 29 29 28 26 26 26 25 24 18 14 12 9 6 2 5 6 6 5 5 4 5 6 1 7 9 7 5 4 3 5 8 9 10 11 14 17 17 11 8 6 2 4 6 7 4 1 1 3 3 2 5 2 2 3 2 1 0 2 1 2 3 3 5 9 5 4 5 2 4 3 3 11 16 17 15 13 14 14 15 17 16 17 17 17 16
29 29 29 29 29 28 25 26 25 25 23 14 10 11 6 4 0 4 6 5 4 4 2 6 11 4 3 6 8 8 7 7 6 6 6 7 9 9 13 16 11 6 2 2 1 5 6 2 2 1 2 3 2 5 6 7 6 5 4 3 3 2 3 5 4 5 10 5 4 7 4 4 3 4 8 14 16 15 15 14 13 14 16 17 18 18 17 17
29 29 29 28 28 27 26 26 25 25 21 11 8 8 3 3 1 3 4 6 9 9 8 10 14 13 9 5 7 8 8 9 9 8 6 5 7 6 7 10 8 5 3 2 2 4 5 2 2 5 7 8 8 9 8 4 5 4 3 2 3 3 4 4 4 5 9 6 4 7 5 4 6 5 7 12 14 12 13 14 14 16 17 18 19 19 19 18
29 28 28 28 27 26 26 25 25 24 16 8 8 6 4 6 3 3 7 9 14 16 17 17 16 19 19 13 12 12 11 9 10 11 8 8 7 3 3 5 3 2 3 4 3 2 4 2 7 10 9 9 9 9 6 3 4 4 3 0 2 3 5 5 3 6 8 5 2 5 5 4 5 5 6 10 10 11 15 15 16 19 19 19 20 21 21 19
28 27 27 28 27 27 25 25 26 20 10 6 6 4 5 7 5 6 6 7 12 14 15 16 17 22 23 19 17 15 10 7 9 11 9 9 9 6 5 4 4 3 1 4 4 2 2 4 13 10 4 5 6 6 6 3 4 3 3 0 3 2 3 4 1 4 6 2 1 5 6 3 3 4 6 9 11 13 19 19 18 19 18 20 22 22 22 21
27 26 27 27 27 27 24 26 23 12 7 7 2 2 3 5 6 8 4 5 12 14 15 16 19 24 25 22 18 14 10 6 8 10 9 8 11 10 8 6 4 4 3 4 5 3 2 7 11 5 6 6 5 5 6 4 2 3 3 1 4 3 0 2 3 4 5 2 2 6 4 2 2 3 4 10 15 13 17 20 19 19 20 22 24 24 24 23
27 26 26 27 28 26 24 25 17 7 10 10 2 3 2 4 6 8 5 5 7 11 14 17 18 21 24 21 15 13 13 10 9 10 9 9 11 9 7 6 5 4 4 7 8 6 8 10 3 4 7 8 4 4 5 5 3 3 4 4 3 1 1 2 1 4 3 2 2 6 3 4 2 4 4 8 11 11 13 16 18 20 22 22 22 23 25 25
27 26 26 27 28 27 26 22 11 9 13 8 5 6 3 3 7 7 4 2 4 6 7 10 13 17 20 14 12 13 10 10 15 14 10 9 11 7 4 6 6 4 6 7 6 6 11 11 3 3 4 6 6 5 6 7 3 2 4 7 6 4 6 5 5 5 3 3 2 5 3 5 3 4 6 4 5 9 10 12 16 21 22 21 22 24 25 25
27 26 27 28 29 28 25 17 11 14 13 4 6 6 3 4 6 6 2 3 3 5 2 4 6 9 11 11 15 13 3 7 18 18 14 12 11 7 2 3 4 4 6 6 3 3 6 6 4 6 5 6 6 4 5 8 4 2 5 8 8 8 9 7 5 4 3 2 4 3 4 3 4 4 8 6 6 9 8 8 14 20 22 22 25 26 25 26
27 27 27 28 29 28 25 18 15 17 11 4 7 8 5 3 3 4 2 4 3 3 2 4 4 4 6 12 19 14 2 5 12 14 17 15 13 10 5 3 2 2 4 5 0 3 4 2 1 4 4 5 5 4 6 9 7 2 6 8 8 7 9 8 5 4 2 2 3 3 4 1 3 5 6 6 8 8 7 8 12 17 22 24 26 27 26 26
27 27 28 29 27 26 24 21 18 14 9 6 8 9 6 4 3 2 2 3 2 1 1 3 4 3 4 13 23 16 2 3 5 8 16 16 13 10 6 6 5 3 3 5 3 5 3 2 3 4 2 3 5 5 8 12 6 4 3 7 6 5 5 6 5 3 1 2 3 4 2 2 4 5 3 3 8 8 10 11 11 16 23 25 26 27 27 26
27 27 28 28 26 22 22 21 18 12 9 6 7 9 6 4 2 1 4 1 2 0 2 2 3 2 5 11 17 12 3 2 3 3 8 12 15 10 4 7 7 4 2 3 5 7 3 5 6 6 4 5 5 4 9 12 5 3 7 9 6 6 5 5 5 3 3 3 3 5 3 3 4 5 2 3 5 8 10 10 10 15 22 26 27 27 26 25
27 28 28 27 24 21 20 19 15 11 8 6 7 8 6 4 2 3 2 2 2 2 3 2 2 1 6 7 5 6 4 4 2 2 4 7 13 10 2 3 4 3 2 2 3 6 5 3 3 3 4 4 3 2 4 8 7 7 8 7 7 6 5 4 3 3 4 2 5 6 5 4 1 5 2 3 5 8 9 7 7 11 18 25 27 27 27 27
28 28 25 23 21 18 18 15 11 9 7 5 7 7 6 3 3 4 3 3 2 3 5 1 1 2 4 5 2 4 2 3 2 2 1 2 4 4 2 2 1 2 3 5 3 6 6 1 2 3 4 6 6 5 4 5 7 7 5 5 5 4 4 4 4 3 3 3 6 4 2 5 1 5 4 5 6 5 8 8 9 10 16 24 26 27 28 28
29 26 20 16 14 12 13 12 8 8 6 6 8 7 6 2 1 2 3 3 1 2 3 2 2 2 1 1 2 4 3 2 2 3 3 1 3 3 3 4 3 2 3 3 2 6 5 3 2 2 3 7 6 6 5 4 4 5 5 5 5 2 3 2 3 1 1 4 3 1 3 3 4 7 7 7 8 7 8 12 13 14 18 23 25 27 28 28
27 20 12 9 9 10 11 11 7 4 6 7 8 5 4 3 2 4 2 3 0 2 3 2 4 3 1 1 3 4 3 2 4 3 3 3 3 3 3 3 6 4 1 3 1 4 4 5 4 3 1 4 6 6 3 0 1 4 5 5 4 2 3 1 3 1 2 2 2 2 2 1 4 5 5 8 9 10 14 17 20 22 23 25 26 27 27 27
23 12 7 7 8 10 11 10 7 2 7 8 7 3 4 2 3 2 1 2 2 3 3 2 5 4 1 2 3 3 3 2 3 4 3 3 2 3 3 2 4 4 3 2 0 1 1 5 2 2 2 3 5 4 5 5 4 3 3 5 4 4 3 2 3 2 2 2 2 3 2 2 1 2 4 7 8 9 14 17 19 22 23 23 22 23 25 27
16 6 6 7 8 12 11 8 5 2 7 7 4 4 3 3 3 0 1 3 2 3 5 4 1 3 3 2 4 1 2 3 2 4 3 3 4 4 3 4 4 4 4 2 2 1 1 4 7 4 2 6 5 3 4 7 4 0 2 5 2 4 5 2 2 4 3 1 1 2 2 3 4 4 5 4 4 2 7 11 12 15 16 16 18 22 25 28
10 2 3 5 7 12 12 6 2 2 5 4 4 2 3 3 1 2 1 2 2 3 6 5 3 4 4 4 4 4 4 1 2 3 1 2 3 4 3 4 5 6 6 4 3 1 2 4 7 3 1 4 5 4 3 4 3 1 2 3 4 4 7 4 1 0 3 3 1 1 2 5 2 2 5 6 6 5 4 6 7 11 14 16 20 24 26 29
7 1 2 5 7 11 12 9 7 3 2 4 4 2 3 2 2 3 1 2 3 3 3 3 2 2 2 3 3 5 4 1 2 2 1 2 2 4 3 2 4 8 8 5 2 3 3 3 7 1 1 2 4 7 5 4 5 4 2 5 3 2 5 4 2 3 4 2 2 2 1 4 2 1 5 6 5 4 3 4 4 7 13 17 21 24 27 29
6 2 2 5 5 7 9 9 7 3 1 4 2 2 1 1 3 2 1 2 3 2 3 0 2 1 2 1 3 5 2 1 2 2 3 2 2 4 4 2 4 8 10 7 2 2 3 1 7 3 1 2 4 8 4 5 3 4 5 4 3 2 1 1 2 0 1 1 3 4 2 2 1 1 4 2 2 3 3 4 4 6 12 17 21 23 25 26
7 1 3 5 3 3 5 7 7 4 2 3 0 2 1 2 5 6 5 4 1 0 1 1 1 2 2 1 2 4 2 2 3 2 3 2 3 3 2 2 3 5 8 10 5 2 3 2 5 4 1 2 3 4 2 4 4 3 3 3 3 2 3 2 2 2 2 2 1 2 3 1 3 4 3 4 6 6 5 6 6 8 15 20 23 23 24 26
5 2 2 5 3 1 3 7 7 4 3 2 3 2 1 2 6 10 10 5 2 1 1 2 1 2 3 2 2 3 2 1 3 3 2 2 3 3 3 3 2 1 3 7 4 1 3 2 3 5 4 2 1 1 5 7 3 2 3 2 0 2 2 2 1 2 3 3 2 1 2 3 5 4 4 6 7 5 6 7 6 11 18 22 24 25 26 28
3 2 2 4 4 2 4 6 5 3 3 1 2 1 3 2 3 9 11 5 4 4 3 3 2 2 2 2 2 2 1 0 2 2 2 2 2 2 2 1 3 2 4 5 3 2 2 2 3 2 4 1 4 4 4 7 7 5 4 4 3 3 4 3 1 1 1 3 2 4 2 5 5 2 3 6 5 5 7 6 6 12 21 23 23 25 26 28
3 2 1 3 3 3 4 4 2 1 2 1 2 3 5 4 3 6 7 3 4 4 2 2 2 3 4 3 3 2 1 1 0 1 1 2 2 2 5 6 0 3 4 4 3 3 3 4 2 2 3 5 7 5 1 4 6 6 3 3 4 3 4 5 3 3 1 2 1 4 3 4 5 2 3 5 5 6 7 8 10 13 18 22 23 23 24 26
4 2 2 2 1 1 3 3 3 3 1 3 5 5 5 3 2 4 4 2 2 2 0 1 3 2 2 2 1 1 1 0 0 1 0 1 1 2 9 11 2 4 4 3 2 0 2 4 2 2 4 5 6 4 3 3 6 6 2 1 4 3 3 5 5 3 3 1 1 4 2 4 5 4 5 7 8 8 8 6 9 14 15 17 21 23 23 24
8 2 3 4 1 1 2 1 1 3 4 5 5 4 4 2 1 4 3 3 4 1 0 2 2 1 1 1 2 0 2 0 1 2 1 1 0 4 11 13 3 3 2 1 4 3 2 1 3 2 4 5 5 5 5 4 3 3 1 1 2 4 5 3 2 3 3 3 3 5 1 5 4 4 8 12 13 12 15 17 11 10 14 15 19 22 23 23
7 2 2 5 4 4 3 3 1 2 3 4 4 4 6 3 3 6 3 3 7 2 0 2 2 1 2 3 3 2 2 1 1 2 2 2 3 4 10 15 7 1 1 2 4 6 4 2 3 5 3 2 2 1 3 2 1 2 2 4 3 5 6 3 2 4 2 3 3 4 4 5 5 8 12 13 13 12 16 23 21 14 12 13 17 19 21 22
4 1 3 4 5 7 6 4 4 1 1 3 3 3 5 3 5 9 5 4 9 8 3 2 3 2 4 5 4 4 5 2 1 3 3 4 3 3 9 12 9 8 5 5 6 4 4 3 2 6 6 6 6 5 5 2 3 0 2 5 5 2 3 4 4 2 3 3 2 3 5 1 6 11 13 12 12 11 12 18 22 22 17 10 12 15 16 18
4 1 2 3 3 4 4 4 7 4 1 2 1 2 4 3 4 7 6 4 9 10 4 3 6 5 3 4 3 3 5 4 4 4 3 5 3 4 10 7 8 14 8 3 5 3 5 4 1 4 3 3 4 4 4 3 5 2 1 4 6 5 4 5 4 2 4 6 1 5 3 4 5 9 11 12 10 8 9 15 20 22 20 11 6 10 12 15
3 1 1 2 2 1 1 4 8 5 3 1 0 2 4 5 4 4 4 5 8 10 6 4 7 7 4 3 2 2 6 4 5 4 3 5 4 5 9 4 6 15 10 3 5 4 6 2 0 3 4 4 3 3 3 5 5 3 5 4 5 6 6 6 3 2 1 5 3 3 5 5 4 7 9 10 10 8 9 14 18 22 23 16 7 1 5 9
3 2 2 3 1 2 2 7 8 5 3 2 2 3 4 5 5 3 2 3 5 8 6 3 5 7 6 4 4 3 5 3 3 4 2 5 5 3 5 4 6 13 11 5 4 3 5 2 0 3 4 7 9 8 6 6 5 5 8 7 6 8 8 7 3 2 3 5 4 7 11 6 3 5 7 8 10 10 13 20 25 27 27 24 19 14 8 3
4 3 3 3 2 3 4 6 4 3 4 4 3 3 3 4 5 4 2 3 3 5 5 4 5 6 4 5 5 4 2 2 0 4 2 3 4 3 3 1 3 9 9 4 3 3 4 2 2 2 5 6 8 9 8 6 5 6 8 8 7 7 7 6 4 3 5 6 4 8 9 5 4 6 7 9 12 15 20 25 26 27 26 27 27 24 20 15
3 4 5 3 2 4 4 4 2 3 3 4 2 2 3 3 4 3 3 3 3 3 4 4 6 5 3 5 6 3 0 2 5 9 8 4 4 4 3 2 2 6 7 4 3 4 4 3 1 4 5 2 6 9 10 8 5 6 7 9 7 6 5 5 5 5 4 3 3 5 6 2 3 5 6 10 15 19 21 22 23 24 26 27 28 27 26 23
3 3 5 3 1 3 3 2 2 3 1 2 2 2 2 4 6 3 1 3 4 6 7 5 4 3 3 5 6 7 11 12 13 16 15 13 13 12 11 10 7 3 3 2 3 2 3 5 2 4 4 2 4 7 7 7 6 3 4 4 4 3 4 5 6 7 4 3 3 3 3 0 3 4 6 10 13 16 19 21 22 22 25 28 28 27 27 26
Wind_Direction
351 350 347 345 343 342 341 339 338 337 336 333 331 331 330 329 328 328 329 331 328 325 324 324 325 325 327 329 327 323 319 315 310 304 300 297 215 208 213 215 218 226 239 233 224 227 236 254 261 274 286 272 272 269 254 217 181 149 128 116 171 200 197 195 188 190 184 183 176 170 155 132 128 151 119 110 129 136 149 133 163 186 173 167 164 151 155 167
347 345 342 341 339 338 337 336 335 334 333 331 329 328 327 326 325 325 326 329 328 325 322 322 324 324 327 331 330 328 324 321 314 310 320 328 203 190 194 203 209 213 225 239 234 238 238 13 8 334 320 302 294 262 209 179 177 154 115 137 201 205 208 208 193 190 186 163 154 153 149 133 136 153 137 124 129 130 132 99 155 192 169 158 162 157 165 179
343 341 339 337 335 334 333 332 331 330 330 328 326 325 324 323 321 321 322 325 327 324 321 320 321 324 328 331 332 332 330 326 318 320 352 1 223 191 190 194 199 207 215 224 226 237 223 75 41 4 317 308 285 225 189 166 187 192 117 144 237 215 223 240 217 206 203 169 137 138 143 126 135 156 148 136 127 128 157 149 155 169 162 164 166 166 177 187
340 337 335 334 331 330 329 328 327 325 325 324 323 322 320 320 318 318 319 321 325 323 320 318 319 323 326 329 335 334 334 331 319 337 3 20 97 188 192 189 195 207 212 214 210 210 215 105 113 206 308 301 265 220 214 191 192 170 140 185 227 190 203 256 231 222 217 178 139 129 129 128 152 169 154 132 120 290 212 179 167 161 160 166 168 171 181 185
337 334 332 331 328 327 325 324 323 322 321 320 319 317 316 316 314 314 315 318 321 322 318 316 317 322 325 329 336 334 343 1 338 349 352 39 107 166 177 190 197 205 211 214 225 227 267 156 182 259 280 272 262 234 232 197 173 158 198 220 212 171 186 264 204 196 184 154 130 123 127 151 162 170 161 146 128 246 201 182 170 161 160 164 168 172 177 178
335 333 330 328 326 324 322 321 320 319 318 317 316 313 312 311 310 310 311 314 318 319 317 313 315 319 323 326 332 336 340 322 310 332 336 343 122 155 160 183 190 203 214 213 220 213 209 207 237 252 251 270 235 194 232 180 167 187 269 259 245 213 226 165 154 158 158 142 126 135 145 146 142 140 168 166 20 161 170 175 170 163 162 165 168 171 174 177
335 333 330 327 325 324 322 321 319 318 316 314 313 310 308 306 306 306 306 311 314 317 314 310 313 314 321 322 328 332 295 282 304 275 219 166 97 158 155 163 179 191 199 203 209 205 203 203 228 232 254 314 236 203 230 155 156 151 275 278 285 236 208 150 146 148 155 143 135 142 142 146 141 144 172 175 96 132 148 166 164 162 163 165 168 171 175 179
334 332 330 328 325 324 322 321 319 318 316 314 312 309 305 302 300 301 303 307 310 313 311 306 308 309 317 319 323 322 293 285 284 206 203 158 137 163 148 147 172 164 145 202 217 217 219 219 228 225 276 284 229 186 148 124 103 136 222 256 54 79 143 148 141 138 140 133 138 138 133 165 156 144 162 109 120 132 140 154 158 160 164 167 169 173 177 181
331 330 329 328 325 324 323 323 321 320 317 315 313 309 305 299 295 297 298 302 306 309 308 300 300 306 312 312 323 324 294 267 244 219 204 184 177 189 176 159 173 176 177 198 208 221 231 231 232 230 241 245 251 211 155 122 298 201 216 228 118 113 132 142 132 128 129 130 140 128 92 155 143 119 92 83 130 135 143 152 156 160 164 168 172 178 181 186
328 328 329 328 326 325 324 324 323 321 319 316 314 310 305 298 292 291 293 298 301 303 303 293 294 300 303 305 320 328 284 244 255 228 205 203 199 204 201 184 185 196 205 206 204 218 228 227 242 255 249 249 265 175 163 138 222 203 183 81 109 125 129 141 134 126 127 135 147 123 82 141 133 82 66 134 141 141 147 151 157 162 164 170 177 186 191 199
328 328 328 328 327 326 325 325 323 322 320 318 315 311 306 298 291 287 288 293 295 300 296 285 289 290 292 288 240 221 262 246 251 228 209 211 210 211 211 207 209 211 212 214 214 221 228 235 252 278 271 260 249 199 213 203 208 143 120 72 60 98 114 134 132 137 130 130 156 125 98 115 57 341 160 156 150 151 152 150 159 164 167 173 180 191 195 200
328 328 328 328 327 326 326 325 324 323 321 319 316 312 307 299 290 284 283 287 290 293 286 277 280 278 283 271 254 258 271 248 240 225 214 216 222 224 225 227 229 230 229 230 232 234 243 251 251 254 251 259 278 265 229 200 194 110 115 83 20 39 70 148 130 155 148 121 156 128 78 350 315 315 152 155 157 159 155 152 161 167 171 176 178 184 182 187
329 328 327 326 326 326 325 325 324 324 322 320 317 314 308 299 291 282 278 282 284 281 275 269 269 270 270 261 262 268 251 232 218 215 219 223 230 236 238 240 239 240 244 250 262 265 265 267 254 251 257 256 257 250 181 204 136 90 86 86 70 25 330 219 145 165 144 129 159 134 33 299 292 286 151 157 164 162 159 159 166 171 176 178 176 181 183 191
331 328 326 325 325 325 325 326 326 325 323 321 319 316 310 301 291 279 277 277 273 267 260 256 261 261 248 252 264 264 241 233 221 216 220 229 234 240 243 246 247 248 248 251 259 269 287 297 265 256 260 247 248 238 349 358 25 89 71 51 90 89 278 261 165 161 96 159 172 112 60 248 294 268 155 164 171 167 165 168 175 179 183 185 184 187 191 200
333 329 327 325 324 324 325 326 327 326 324 323 323 320 315 306 292 280 275 269 259 251 247 250 249 244 251 261 266 265 252 239 232 227 228 238 242 244 246 249 253 255 256 255 255 259 291 327 257 245 242 228 244 70 360 354 10 47 85 331 342 152 260 294 203 181 126 173 193 80 88 247 283 214 176 174 177 174 172 176 183 188 191 194 196 195 198 205
332 330 327 325 324 324 325 328 329 328 326 327 327 325 323 314 301 287 268 253 244 237 237 241 233 225 259 274 263 259 261 248 243 240 238 244 248 251 253 256 259 258 259 260 258 256 269 304 255 242 226 166 109 89 29 5 351 2 87 221 275 157 246 299 220 207 145 135 198 96 135 233 251 197 184 180 185 183 180 184 189 196 201 201 203 205 208 210
330 329 328 327 325 325 327 330 332 330 329 331 331 331 330 322 323 347 224 202 204 209 216 213 201 224 250 259 255 243 249 255 256 252 246 247 251 256 257 257 260 262 267 268 262 254 242 243 227 254 343 76 89 90 41 356 322 326 37 122 244 180 184 213 248 216 148 134 180 144 129 213 246 199 184 185 190 191 191 195 198 201 206 207 209 213 217 219
329 329 329 328 326 326 329 333 333 332 331 335 336 334 330 323 28 89 100 118 148 165 191 194 161 208 256 235 231 220 215 237 249 249 252 257 259 261 256 253 261 273 283 285 252 226 206 217 157 288 344 15 57 97 113 240 204 217 188 117 274 236 193 210 248 193 160 147 161 148 176 239 261 202 188 190 190 197 205 206 206 208 210 213 216 220 223 225
329 329 330 329 327 327 331 335 334 333 332 336 342 334 318 307 359 137 129 122 158 163 180 198 177 180 256 218 224 229 241 252 255 253 252 265 272 273 258 249 252 264 293 63 217 192 166 130 73 122 288 278 225 162 192 214 173 172 182 154 176 227 245 220 241 197 164 145 159 167 186 213 203 186 192 194 192 201 213 216 218 219 219 221 224 226 227 227
329 330 330 328 327 328 333 336 335 334 332 334 347 342 336 350 354 214 249 252 240 239 263 244 219 235 253 251 246 247 259 261 261 258 248 262 268 271 258 242 238 259 266 149 200 200 156 138 209 211 218 221 219 205 205 190 138 137 129 125 183 213 261 238 242 212 160 145 195 179 161 175 185 194 199 191 190 203 213 218 224 223 224 226 228 229 227 226
330 330 329 327 327 329 334 336 334 333 330 334 356 11 41 32 30 305 304 278 254 249 258 257 247 251 255 254 259 272 290 284 260 247 240 251 250 240 223 203 178 256 253 155 127 129 131 171 237 227 215 215 224 219 206 144 118 120 119 70 278 224 251 254 228 195 163 140 183 160 155 189 192 190 195 183 184 208 212 213 221 223 226 228 230 232 229 229
330 329 328 325 325 329 333 335 334 332 331 340 359 41 52 34 10 325 316 287 275 262 256 255 249 251 252 252 257 271 286 284 261 245 233 232 227 212 187 161 158 200 186 115 98 66 117 239 247 237 189 194 233 237 226 190 130 107 115 117 299 267 264 297 342 151 156 124 135 162 168 222 231 186 181 188 196 214 214 215 222 223 227 229 231 233 232 232
330 329 327 324 324 328 331 333 332 334 339 336 343 103 25 15 352 326 293 267 288 281 266 255 247 247 249 250 254 254 246 242 259 255 240 214 204 197 181 170 171 161 136 156 162 138 200 245 245 218 144 170 222 235 233 238 169 132 132 146 281 289 314 298 355 96 129 100 138 155 150 304 275 167 184 208 211 221 220 220 227 229 231 234 234 235 235 235
331 329 326 324 324 326 329 329 327 332 333 324 245 195 320 347 341 325 279 248 286 285 268 255 249 247 245 246 245 237 231 229 240 249 242 210 191 186 191 186 159 155 189 193 180 184 233 247 226 128 155 177 187 198 206 222 239 202 166 183 238 285 99 193 127 92 97 20 88 110 60 320 231 175 217 215 211 229 226 219 227 232 236 240 240 240 239 239
331 328 325 325 324 324 327 326 319 322 325 311 226 221 264 327 333 326 301 278 292 283 266 247 243 241 235 231 224 219 221 233 239 241 237 212 185 172 197 183 164 204 208 179 171 208 247 255 225 141 172 175 172 189 194 191 211 266 199 196 189 132 91 113 123 95 66 336 265 110 73 302 279 205 220 189 191 226 222 216 224 230 234 237 239 241 240 241
330 328 327 326 324 323 324 322 316 322 323 289 218 221 242 310 328 323 331 41 319 274 245 206 220 225 215 197 193 191 165 251 246 242 233 223 207 194 206 175 176 221 185 156 163 214 257 261 216 210 202 182 195 223 211 179 147 329 225 192 172 130 112 130 136 96 100 235 262 108 126 263 313 257 226 184 189 220 212 216 228 229 231 232 236 240 241 240
329 329 328 324 323 322 320 315 313 317 315 264 225 220 236 277 322 323 346 35 326 256 154 185 187 174 198 187 175 164 116 247 239 239 229 224 220 209 213 211 202 219 156 126 152 237 244 286 190 215 196 166 195 237 217 168 133 256 226 168 147 124 135 158 130 92 162 199 336 33 115 183 304 267 242 181 187 223 223 223 230 228 229 231 236 239 240 241
330 330 326 321 320 318 312 308 310 312 306 271 229 216 223 243 275 297 80 49 298 221 112 199 181 134 176 178 173 168 154 184 177 228 227 224 217 197 206 219 187 192 167 136 216 256 224 202 206 192 154 162 203 226 187 156 144 243 194 123 119 105 129 144 108 94 99 71 339 316 103 123 272 276 300 157 184 223 227 225 224 220 225 229 233 236 239 241
330 329 325 318 314 310 302 300 305 305 300 277 224 211 209 206 251 69 94 59 253 11 14 176 159 147 148 161 181 193 223 196 139 179 201 204 205 194 205 214 177 180 223 155 215 256 246 221 206 159 158 208 218 229 179 159 161 177 111 89 80 70 72 82 94 106 52 47 265 258 158 133 274 280 4 113 196 223 222 226 225 216 219 225 229 233 235 236
330 328 323 314 309 304 296 297 300 291 284 269 219 204 190 170 120 79 107 254 249 346 342 193 182 165 135 136 205 233 241 252 237 145 129 163 193 199 185 191 164 159 271 336 248 257 279 256 212 170 187 190 146 86 149 150 138 122 97 75 66 45 38 51 59 86 64 347 268 248 187 136 306 280 223 170 214 213 199 217 230 216 216 221 226 229 230 232
330 328 322 311 307 307 304 305 299 274 265 245 209 185 159 140 79 100 186 251 272 340 351 319 276 43 122 138 205 223 221 278 268 171 160 102 163 190 138 140 118 74 359 339 297 296 324 335 226 228 165 129 98 62 60 107 117 108 88 85 84 18 9 30 357 39 83 265 273 264 164 117 143 266 240 227 250 224 182 198 216 212 214 219 221 224 227 228
332 328 321 313 316 324 322 321 306 267 244 208 192 177 150 117 48 172 238 315 354 317 337 296 287 13 52 189 190 183 167 231 231 159 170 140 123 181 193 188 178 55 337 289 297 329 323 244 275 338 143 135 107 74 51 32 56 89 97 94 86 16 7 14 320 340 186 240 263 180 114 112 229 251 254 250 254 236 197 198 205 207 212 217 220 221 223 224
334 329 327 330 335 339 337 338 330 255 204 180 176 168 113 93 216 215 276 335 51 272 298 279 288 306 175 203 215 188 150 204 221 178 161 141 148 213 245 186 157 129 225 225 315 353 328 310 345 33 225 172 128 115 114 130 147 139 136 123 119 104 70 304 271 298 262 258 298 244 186 284 283 264 243 242 249 234 214 206 206 209 213 218 220 219 217 219
338 334 344 352 348 342 336 337 338 199 178 168 156 129 99 139 229 239 326 288 268 290 294 287 300 313 134 184 237 196 164 220 198 153 148 117 140 230 264 231 163 115 123 172 300 102 6 314 278 153 232 181 146 152 159 143 136 163 148 122 138 153 139 220 226 184 229 253 307 298 229 185 245 252 231 244 271 255 221 212 211 213 216 217 216 212 211 214
341 339 350 358 3 353 342 332 328 164 164 159 120 89 138 189 246 293 274 274 290 306 303 303 339 25 18 310 297 309 151 220 164 121 148 154 165 201 200 208 193 125 119 163 238 177 80 270 252 260 233 172 169 183 128 103 93 215 119 107 146 184 142 108 176 169 175 171 266 282 232 212 219 264 292 307 326 302 200 203 208 210 211 206 204 205 208 210
345 339 354 5 11 6 7 13 31 139 157 138 90 107 187 208 211 178 218 290 293 305 324 337 39 52 357 333 331 355 34 65 150 123 189 213 194 203 207 218 192 160 152 160 207 193 79 275 272 307 301 187 174 162 112 105 135 142 121 172 220 170 122 109 142 67 64 91 239 280 278 297 314 283 316 4 38 50 116 170 192 195 193 194 199 204 206 209
351 143 25 15 18 20 29 44 58 84 139 97 98 182 222 242 196 189 240 325 294 308 19 5 354 34 2 337 318 326 3 35 170 155 213 263 231 198 209 245 182 178 186 170 201 206 138 281 285 279 259 265 132 108 57 43 116 125 188 208 200 107 99 112 113 10 39 93 287 340 297 300 15 83 322 6 50 56 95 138 152 171 184 194 201 204 207 210
354 141 41 18 20 23 30 36 37 31 76 73 77 241 255 267 238 222 317 330 304 330 63 89 277 38 56 327 290 304 324 201 204 170 172 228 259 195 180 210 186 194 197 165 159 235 141 302 293 271 178 304 74 89 44 344 47 119 178 168 117 127 160 85 107 117 76 106 299 320 301 265 154 229 308 338 170 181 152 146 147 169 190 200 206 207 207 208
351 115 36 27 27 18 19 9 3 9 69 82 110 263 262 267 280 289 299 310 302 23 32 233 247 4 2 223 249 293 300 196 194 171 156 184 240 221 178 190 191 207 190 156 151 227 120 122 283 296 24 37 36 77 151 268 335 45 112 106 77 133 161 146 136 160 131 128 228 330 356 288 226 227 235 241 234 212 177 175 182 193 199 204 209 208 207 209
353 105 47 32 33 329 328 346 356 33 79 136 195 235 288 277 289 297 298 290 230 231 247 206 196 327 299 276 259 276 306 174 171 169 180 192 208 230 235 198 158 134 148 139 140 108 74 115 235 297 344 51 131 188 179 192 200 84 111 164 359 71 127 148 78 71 114 134 161 100 44 280 260 216 211 256 263 231 202 196 197 203 203 207 212 212 212 214
30 88 9 6 16 323 318 348 7 61 81 167 205 233 295 293 283 296 301 282 233 245 231 195 198 234 238 285 286 260 301 24 161 158 186 196 182 206 252 206 146 121 98 105 125 155 123 139 185 289 338 226 237 255 203 182 173 151 155 181 167 127 125 118 76 308 88 103 161 142 138 267 267 222 250 280 282 259 243 229 222 213 205 207 214 215 217 220
51 75 360 351 1 334 336 354 354 75 120 219 286 259 271 294 280 288 301 282 229 239 233 205 221 224 209 218 244 233 241 334 357 92 171 200 179 199 327 338 335 134 109 131 184 192 145 108 112 264 260 232 255 278 247 157 136 121 128 157 145 131 119 122 176 227 86 60 148 116 106 262 265 296 320 308 296 285 272 249 243 236 216 209 212 215 219 223
5 53 82 36 345 6 22 11 344 354 244 281 302 269 255 263 268 292 309 319 264 241 326 255 219 215 218 213 230 237 252 343 59 32 250 192 160 281 327 334 300 138 98 134 202 181 94 80 75 292 300 300 299 321 2 46 87 88 57 91 128 140 126 140 175 175 122 138 145 87 73 266 277 321 352 355 352 356 359 324 257 249 242 224 216 215 217 222
343 350 71 62 148 171 49 65 311 319 297 310 329 321 303 255 257 312 307 331 330 287 63 318 241 257 300 101 82 315 276 111 76 16 50 104 359 316 347 358 14 156 109 183 189 163 137 77 95 68 2 348 343 352 350 349 43 86 70 6 96 114 103 119 149 88 94 183 145 107 180 249 266 335 4 8 6 8 6 0 338 279 264 247 228 220 217 219
342 324 36 55 111 133 102 121 158 251 292 334 345 346 344 320 334 347 335 353 355 357 62 325 300 316 352 35 53 360 348 77 79 17 27 358 313 317 357 7 18 80 28 46 129 143 141 126 123 116 120 168 187 249 251 256 360 58 50 11 26 100 110 135 131 72 91 191 125 126 198 249 300 354 4 4 6 0 352 356 357 340 305 270 243 228 221 219
7 5 355 27 73 87 94 93 56 47 298 1 1 351 360 327 329 352 13 33 12 6 10 356 353 13 25 26 29 8 2 9 43 49 29 338 301 298 338 351 10 17 26 63 69 104 113 66 113 139 151 182 190 217 239 185 108 70 347 356 352 27 90 99 99 106 180 149 76 206 195 249 345 354 356 352 357 355 347 352 354 352 346 312 256 234 225 222
28 30 350 360 16 45 73 54 34 26 307 16 26 328 354 332 315 355 16 25 12 7 12 27 24 32 15 3 28 17 354 352 20 38 9 327 284 293 327 340 19 12 13 69 39 64 104 62 95 133 122 175 188 234 289 61 103 128 12 353 343 353 33 82 98 205 165 115 42 255 183 72 360 350 351 346 349 349 345 352 353 356 2 356 284 240 227 222
28 50 46 34 339 299 55 357 359 355 317 320 170 318 360 2 353 5 352 342 7 17 23 18 18 25 2 353 97 41 354 2 13 2 340 339 328 327 340 345 19 13 18 39 19 77 115 78 156 115 50 33 41 355 9 84 105 88 60 30 9 23 48 85 98 282 144 129 195 206 101 73 6 355 354 347 349 346 347 1 11 17 22 27 29 308 234 229
39 74 24 15 318 230 267 315 329 349 349 352 16 360 9 12 2 340 309 336 2 10 30 35 350 357 6 25 90 61 10 35 11 333 328 352 342 340 355 335 340 3 18 31 10 74 111 58 284 116 58 28 24 15 28 70 89 59 45 34 35 55 67 77 72 340 60 102 143 117 95 81 33 5 356 356 2 11 22 27 30 30 29 36 44 45 38 5
49 55 350 340 326 306 308 321 341 44 13 8 29 351 355 24 4 330 327 32 13 340 16 40 334 331 8 38 70 90 81 108 306 285 287 4 344 335 5 301 298 344 360 16 355 13 82 105 264 80 64 11 10 19 14 30 82 79 48 28 25 44 57 61 42 17 61 80 98 100 94 79 33 4 4 22 32 37 37 34 33 31 30 35 40 41 43 43
36 21 359 7 356 343 341 337 25 87 28 10 22 326 345 7 341 314 318 15 49 7 348 341 321 321 1 29 52 83 274 240 238 253 255 253 262 273 305 301 316 345 345 353 352 357 67 117 286 56 76 320 357 21 355 354 60 73 44 32 24 28 51 63 49 38 75 109 86 78 89 73 343 345 18 43 46 46 41 34 33 32 33 37 39 38 42 45
354 343 346 11 15 345 356 350 24 76 71 336 324 304 308 314 320 346 43 345 15 23 357 334 329 347 7 15 11 341 321 306 285 280 275 260 256 263 271 277 284 291 290 330 21 11 83 119 124 80 103 253 359 28 347 349 33 11 341 23 45 62 80 79 60 50 68 111 102 93 109 68 315 338 44 53 49 49 46 40 36 34 36 41 41 40 42 45